Location: *
(37.5724°S, 58.0067°E)
Time: 03:06:29
(UTC+00:00)

CZ-4 R/B - Pass Details

Date: 24 January 2021
Orbit: 531 x 598 km, 97.7° (Epoch: 07 March)

Event Time Altitude Azimuth Distance (km) Brightness Sun altitude
Rises 15:52:15 0° 173° (S) 2,878 5.3 -5.4°
Reaches altitude 10° 15:54:28 10° 177° (S) 1,970 4.5 -5.8°
Maximum altitude 15:58:39 55° 254° (WSW) 737 2.4 -6.5°
Drops below altitude 10° 16:02:47 10° 332° (NNW) 1,942 4.1 -7.2°
Sets 16:04:58 0° 336° (NNW) 2,832 4.9 -7.6°
